EW8682 Weather Reports


Display with metric or nautical units.
time (UTC)temp
F
wind
direction
speed
MPH
gust
MPH
rain 1hr
in
rain 24hr
in
rain mn
in
humidity
%
barometer
mb
20260503200036 55 190 0.0 3.0 0.00 0.10 0.10 91 1005.8
20260503194536 55 189 0.0 3.0 0.00 0.10 0.10 92 1005.8
20260503193036 55 189 0.0 3.0 0.00 0.10 0.10 92 1005.9
20260503191533 54 190 1.0 5.0 0.00 0.10 0.10 92 1006.0
20260503190037 55 194 2.0 5.0 0.00 0.10 0.10 92 1006.0
20260503184541 55 203 2.0 5.0 0.02 0.10 0.10 93 1006.0
20260503183029 54 207 2.0 4.0 0.03 0.10 0.10 93 1006.1
20260503181527 54 200 1.0 4.0 0.04 0.10 0.10 93 1006.2
20260503180034 54 242 2.0 5.0 0.06 0.10 0.10 93 1006.4
20260503174530 54 221 2.0 5.0 0.05 0.08 0.08 93 1006.5
20260503173031 54 198 2.0 3.0 0.05 0.07 0.07 93 1006.4
20260503171518 54 201 2.0 6.0 0.05 0.06 0.06 93 1006.2
20260503081538 56 169 0.0 2.0 0.00 0.00 0.00 90 1004.8
20260503071524 54 168 0.0 1.0 0.00 0.00 0.00 87 1004.3
20260503054522 58 168 0.0 0.0 0.00 0.00 0.00 82 1004.6
20260503053016 59 168 0.0 2.0 0.00 0.00 0.00 80 1004.7
20260503051518 60 167 1.0 3.0 0.00 0.00 0.00 79 1004.5
20260503050016 61 167 1.0 3.0 0.00 0.00 0.00 79 1004.3
20260503044533 60 165 0.0 2.0 0.00 0.00 0.00 78 1003.9
20260503043030 62 165 0.0 1.0 0.00 0.00 0.00 75 1003.9
20260503041514 62 165 0.0 1.0 0.00 0.00 0.00 75 1003.8
20260503040013 63 165 0.0 1.0 0.00 0.00 0.00 74 1003.5
20260503034513 63 165 0.0 1.0 0.00 0.00 0.00 74 1003.1
20260503033014 63 165 0.0 3.0 0.00 0.00 0.00 73 1002.9
20260503031517 65 169 0.0 2.0 0.00 0.00 0.00 70 1002.8
20260503030014 66 169 0.0 1.0 0.00 0.00 0.00 68 1002.8
20260503024510 67 169 0.0 2.0 0.00 0.00 0.00 67 1002.5
20260503023011 68 170 2.0 5.0 0.00 0.00 0.00 65 1002.3
20260503021508 70 175 3.0 5.0 0.00 0.00 0.00 60 1002.1
20260503020008 73 183 2.0 5.0 0.00 0.00 0.00 55 1002.0
20260503014507 76 196 1.0 6.0 0.00 0.00 0.00 52 1001.9
20260503013006 77 183 2.0 5.0 0.00 0.00 0.00 50 1001.8
20260503011504 78 202 2.0 5.0 0.00 0.00 0.00 48 1001.8
20260503010004 79 200 1.0 6.0 0.00 0.00 0.00 45 1001.8
20260503004504 80 211 3.0 5.0 0.00 0.00 0.00 43 1001.9
20260503003001 81 194 2.0 5.0 0.00 0.00 0.00 41 1001.9
20260503001501 80 165 3.0 6.0 0.00 0.00 0.00 40 1001.9
20260503000117 80 194 1.0 5.0 0.00 0.00 0.00 39 1002.0
20260502234603 80 189 1.0 5.0 0.00 0.00 0.00 36 1002.0
20260502233055 80 174 2.0 6.0 0.00 0.00 0.00 38 1002.2
20260502231553 80 181 2.0 6.0 0.00 0.00 0.00 39 1002.3
20260502230052 80 174 2.0 6.0 0.00 0.00 0.00 42 1002.4
20260502224549 80 168 3.0 7.0 0.00 0.00 0.00 43 1002.7
20260502223045 81 196 2.0 6.0 0.00 0.00 0.00 40 1003.0
20260502221541 80 186 2.0 5.0 0.00 0.00 0.00 42 1003.3
20260502220046 80 188 2.0 5.0 0.00 0.00 0.00 42 1003.5
20260502214538 80 200 2.0 7.0 0.00 0.00 0.00 43 1003.8
20260502213039 80 167 3.0 7.0 0.00 0.00 0.00 43 1004.1
20260502211536 79 213 3.0 7.0 0.00 0.00 0.00 43 1004.2
20260502210028 79 186 3.0 8.0 0.00 0.00 0.00 44 1004.2
20260502204524 78 284 3.0 5.0 0.00 0.00 0.00 44 1004.3
20260502203021 77 174 2.0 6.0 0.00 0.00 0.00 47 1004.5
20260502201518 76 192 1.0 5.0 0.00 0.00 0.00 48 1004.6